GFSSGP_850_rhum_276.txt.gz
RH
38 55 47 65 68 51 46 48 46 41 41 42 42 44 57 54 55 86 74 75 53 49 65 72 69 64 60 61 70 75 80 80 86 84 77 60 68 76 75 86 88 92 87 86 83 84 86 77 69
53 53 60 70 64 52 45 42 52 41 41 45 47 51 58 76 84 89 85 59 47 49 57 59 56 56 63 67 65 78 79 78 81 79 73 80 66 78 80 64 72 80 83 83 80 67 47 58 75
66 64 71 81 53 48 41 47 41 37 37 38 40 43 58 78 73 72 50 46 39 50 49 58 59 70 60 60 63 71 79 81 82 71 77 78 85 72 83 86 63 55 64 76 76 60 73 75 74
72 64 59 50 44 34 33 39 39 37 41 43 43 46 57 52 70 54 35 32 30 40 38 49 54 54 58 65 69 67 79 75 77 67 68 77 91 88 74 58 59 58 65 74 58 49 67 72 71
34 44 61 47 41 34 31 34 35 41 44 44 44 49 51 57 57 54 46 47 32 39 43 46 50 54 57 65 69 67 70 78 69 63 70 60 60 56 59 56 56 52 52 57 59 59 65 68 65
38 46 55 50 38 31 32 35 37 42 43 45 45 51 60 56 55 62 60 45 38 41 44 39 41 54 48 50 55 69 62 67 65 63 63 66 64 65 55 56 56 55 53 45 45 52 71 67 69
49 56 49 41 38 34 29 37 39 43 44 44 44 59 66 68 54 61 58 43 40 41 43 50 48 46 54 52 52 54 65 61 64 59 67 56 49 64 55 54 49 45 40 39 39 46 69 72 76
32 57 47 49 39 38 29 31 36 40 40 44 43 50 55 68 60 61 53 43 36 39 39 39 46 55 51 54 50 47 50 55 62 54 53 59 47 46 44 53 49 52 42 41 39 38 36 41 59
32 54 56 46 36 34 26 31 36 38 43 42 42 44 52 60 60 60 59 54 53 57 53 63 44 41 46 54 49 48 41 43 49 46 45 49 56 56 57 54 53 54 52 45 50 54 58 43 42
41 54 42 32 30 32 29 31 33 40 42 42 42 42 53 58 60 60 59 63 64 64 64 61 61 54 41 44 54 50 54 48 46 65 65 62 59 55 56 49 46 52 52 50 47 54 56 51 55
35 40 34 21 28 27 29 32 30 36 44 42 42 42 52 57 61 56 58 59 58 61 69 66 62 66 67 50 70 72 81 66 84 83 82 84 67 76 71 67 43 44 49 46 50 40 38 60 62
35 31 31 29 28 29 33 32 30 34 39 41 39 40 50 53 53 52 55 55 60 62 68 68 68 67 73 67 75 74 75 84 78 84 88 78 82 78 78 77 79 74 63 61 67 63 69 74 76
37 32 30 30 32 34 28 30 31 38 40 39 39 39 40 40 42 45 45 49 57 62 67 68 71 70 71 76 73 73 72 76 75 69 87 80 82 77 80 78 81 80 77 74 73 73 67 71 69
34 32 29 31 32 41 39 32 30 36 36 36 37 38 38 39 40 45 48 51 54 58 63 64 66 67 74 76 76 76 80 84 81 73 77 79 79 81 80 80 81 79 76 80 74 71 73 76 73
32 39 39 41 39 50 34 43 46 34 33 34 35 36 35 37 38 43 44 48 49 51 57 55 55 60 68 63 71 73 75 83 78 74 73 70 74 75 78 76 75 78 79 80 74 74 76 75 73
38 45 56 43 40 45 39 55 51 32 30 32 32 33 34 34 34 36 40 44 48 48 56 54 57 60 67 65 74 67 68 78 74 76 75 75 72 78 72 74 79 83 82 80 86 79 80 75 75
44 43 55 48 40 38 49 62 52 39 30 31 31 31 32 32 31 32 36 41 42 43 52 53 59 61 66 70 69 65 71 71 72 77 73 71 72 77 72 80 81 78 79 75 78 78 73 74 71
42 52 44 55 47 41 59 60 52 43 36 42 33 32 32 32 31 31 36 38 40 44 49 52 60 64 65 73 66 70 68 71 73 75 75 72 73 68 76 76 72 76 72 77 77 84 78 76 72
38 48 46 41 38 48 53 48 48 50 43 43 43 36 33 33 35 35 33 39 43 49 48 55 64 67 68 72 66 68 56 67 74 74 74 66 67 74 70 72 77 76 73 77 84 79 76 71 76
39 48 48 36 35 40 56 60 46 49 49 34 37 45 36 36 37 42 38 39 43 45 50 53 58 64 67 65 68 73 72 66 68 73 76 74 75 73 75 72 81 80 86 78 79 83 78 73 72
31 45 40 36 36 38 50 56 56 46 50 35 38 40 40 39 40 43 44 43 46 48 53 54 56 60 64 63 69 77 73 72 67 75 76 60 67 72 77 79 86 80 81 77 75 78 81 79 76
31 26 27 26 35 42 40 44 61 52 50 43 35 38 45 44 41 41 45 50 50 54 56 55 56 65 67 67 66 73 70 65 62 68 65 66 67 77 73 77 83 81 77 78 77 78 82 80 78
28 23 23 25 34 40 44 50 55 51 45 34 36 31 39 44 43 45 42 43 49 54 58 56 65 68 69 69 66 73 75 69 70 75 73 73 71 73 86 94 92 83 76 84 85 81 79 84 78
23 28 31 46 39 41 39 48 52 47 31 32 32 30 36 45 44 45 44 45 44 52 55 59 68 69 68 59 66 70 75 70 68 73 74 70 76 81 88 87 84 80 81 89 93 92 88 82 72
21 33 44 50 61 41 45 38 40 33 33 37 35 28 29 37 45 45 45 46 46 52 56 60 65 67 66 53 68 76 77 70 76 79 81 79 84 86 86 78 66 57 87 88 82 78 75 72 70
18 24 44 42 52 43 41 43 34 30 27 27 28 24 25 38 42 42 44 45 49 53 57 60 63 66 64 54 74 75 73 74 74 73 82 82 81 82 71 70 59 38 37 53 70 79 76 72 72
16 19 22 41 44 44 43 35 27 31 31 29 27 32 36 44 40 42 44 46 49 53 56 58 64 68 66 59 64 70 74 73 70 83 86 79 72 68 74 48 28 21 25 23 23 42 59 60 49
15 16 17 32 42 47 42 48 44 31 35 29 26 28 38 42 43 44 44 46 48 52 55 59 62 60 63 68 72 73 66 68 77 85 75 69 60 58 52 42 17 21 21 24 24 23 24 29 32
11 14 19 29 43 52 45 52 43 32 37 39 30 22 32 41 41 42 44 46 49 53 54 57 59 61 61 66 71 72 74 80 82 80 80 56 57 49 18 19 26 27 33 36 35 35 38 45 55
10 10 16 22 20 44 43 40 22 30 31 32 33 33 34 40 38 40 44 47 52 53 55 54 57 61 54 59 69 81 86 84 81 72 44 33 32 16 20 24 32 35 40 34 35 44 60 68 76

GFSSGP_850_rhum_279.txt.gz
RH
46 53 60 82 69 54 52 58 44 46 50 48 44 46 72 81 60 73 68 63 63 66 75 66 54 60 70 70 76 75 83 81 85 76 74 86 91 91 97 93 95 89 88 82 78 74 82 78 77
50 67 82 80 59 57 54 50 53 48 49 44 48 59 70 82 85 78 78 66 59 59 62 59 63 57 66 68 75 78 81 78 85 62 70 68 80 91 96 92 87 87 86 83 84 83 83 70 66
60 70 81 78 53 53 60 49 50 47 42 42 46 53 69 91 82 67 50 51 52 53 52 56 67 58 52 60 78 80 77 80 79 68 70 74 79 81 80 84 82 82 82 80 73 68 83 73 69
73 63 58 53 42 40 53 45 41 44 42 44 46 58 71 64 54 43 42 40 48 52 56 73 63 57 60 57 81 81 83 78 75 77 76 81 72 73 74 73 61 70 70 73 72 76 72 76 81
41 41 59 47 41 38 45 40 43 49 47 47 47 63 81 79 50 36 37 42 39 41 54 56 55 67 62 60 69 78 72 66 74 76 78 77 82 85 80 75 69 66 65 52 64 67 70 73 77
36 44 54 52 40 39 43 40 42 45 47 52 56 61 72 62 35 38 35 38 39 38 51 53 54 60 63 60 57 75 74 66 81 60 65 84 66 81 80 79 82 78 61 57 61 67 72 73 73
46 53 50 43 42 42 42 40 46 46 46 48 53 72 86 57 48 54 40 40 50 45 39 45 53 45 48 59 64 65 72 72 62 61 62 74 70 72 60 58 58 55 44 45 56 69 66 76 74
35 51 47 46 42 41 40 40 45 44 46 49 51 75 84 66 63 64 45 50 54 50 54 46 42 48 49 51 62 60 59 74 68 64 55 49 62 59 72 47 42 36 36 38 50 71 72 76 77
33 57 49 42 40 38 35 41 44 43 46 47 47 56 58 62 68 62 48 54 52 50 49 48 51 50 51 54 53 54 58 58 56 61 75 57 48 44 44 47 56 49 43 40 38 38 44 52 71
43 51 45 36 32 33 34 39 43 44 44 46 52 59 60 67 64 51 47 49 51 53 58 44 43 47 54 51 47 42 45 50 46 45 47 54 53 55 54 57 56 55 49 48 55 56 54 42 51
36 43 38 33 34 30 34 38 42 44 49 46 62 65 64 67 66 59 54 57 58 61 63 62 58 43 45 56 50 51 42 44 58 65 66 64 62 67 64 58 47 43 43 42 41 52 54 49 59
37 34 32 35 32 32 35 34 42 41 44 45 54 55 63 65 61 58 57 60 62 65 66 66 68 69 50 70 65 67 63 77 69 78 84 78 76 75 77 69 48 63 67 55 54 38 38 61 67
43 36 33 34 33 32 31 35 41 42 41 44 54 58 57 55 55 56 52 58 60 64 67 69 70 72 69 68 71 71 74 74 78 84 82 79 79 72 75 74 73 77 76 69 70 64 66 64 69
36 36 36 37 38 37 35 38 38 44 39 42 50 54 53 53 55 58 55 54 57 62 64 65 68 71 77 76 74 75 73 70 66 74 80 77 77 77 78 75 78 81 80 76 75 75 72 67 71
34 40 40 42 42 40 31 46 46 42 40 40 41 46 50 53 55 52 47 48 49 56 61 54 53 63 74 70 76 79 80 79 76 71 77 79 79 76 80 78 73 74 74 77 77 73 71 70 74
40 46 52 41 45 42 41 53 46 40 40 40 39 40 43 46 45 46 46 47 48 55 59 54 55 57 66 69 76 77 73 78 77 77 79 77 76 78 77 79 78 78 76 77 79 81 77 75 78
45 51 48 49 43 41 42 56 47 36 36 39 39 38 38 38 40 40 45 45 46 52 54 55 58 62 62 69 69 71 67 75 76 77 76 73 74 80 82 78 86 88 83 78 82 88 82 78 80
42 50 49 50 42 40 43 50 50 42 40 35 36 35 37 36 36 35 38 43 45 52 54 55 56 64 64 68 71 69 74 74 67 73 71 76 77 79 83 79 80 79 75 78 83 80 84 77 74
42 40 32 40 38 46 44 40 45 47 49 45 34 33 34 34 33 34 36 41 45 52 57 53 60 64 68 65 61 64 68 70 75 78 80 77 79 79 72 74 74 78 76 70 73 82 81 76 72
41 46 46 39 36 43 52 51 42 50 50 45 47 36 33 35 32 35 36 42 44 46 52 54 58 64 66 63 58 59 58 63 70 75 82 77 78 77 77 77 76 79 81 78 79 76 80 78 74
41 43 45 35 39 42 58 57 55 46 47 46 39 40 34 34 35 37 36 42 43 48 49 52 56 63 64 64 63 71 74 70 65 68 73 79 71 80 80 79 79 85 82 81 83 77 77 79 80
32 33 33 37 40 49 40 57 46 51 52 52 40 38 43 34 36 39 41 39 43 46 46 51 55 61 60 66 66 66 69 67 65 64 71 74 65 61 75 78 75 75 76 75 73 74 78 80 83
28 27 30 33 38 40 46 50 50 52 48 44 42 37 40 40 36 39 41 44 43 46 47 55 56 61 59 67 68 66 68 67 69 68 74 77 75 75 76 76 78 84 81 76 74 79 84 80 80
25 30 36 45 42 39 39 43 41 50 39 32 36 34 35 43 39 40 42 47 46 46 51 58 64 65 63 70 72 68 68 72 72 72 76 81 78 76 77 85 87 80 79 77 87 86 84 82 82
26 30 38 33 47 37 48 42 39 28 35 34 37 31 30 38 46 43 43 46 49 52 53 57 63 73 60 72 71 70 74 74 72 73 77 79 77 81 87 91 79 59 48 88 85 82 80 81 79
29 30 36 30 43 38 42 43 30 29 28 26 26 27 29 37 41 42 41 45 46 47 52 58 59 66 70 67 67 69 76 75 78 74 75 82 85 91 91 81 72 68 52 48 71 84 83 78 77
25 23 24 49 51 45 44 39 30 31 30 32 28 31 32 28 37 42 41 44 45 46 48 52 57 63 69 68 60 65 76 78 77 76 75 87 88 86 78 77 55 31 28 23 23 39 64 74 71
17 19 23 36 44 44 46 44 40 29 31 31 32 30 34 39 43 50 44 43 44 46 49 53 57 61 64 68 58 66 77 80 81 74 76 86 79 65 66 62 56 28 28 26 26 28 27 27 30
16 18 27 35 42 47 40 46 41 33 32 29 31 26 30 39 42 46 45 42 44 47 50 54 58 62 66 64 66 67 70 74 70 74 87 87 75 62 63 42 32 39 46 39 33 34 39 45 52
10 13 21 20 20 46 41 34 23 31 28 28 22 21 24 30 38 43 44 42 44 47 50 54 58 63 60 50 55 63 66 65 64 72 68 60 38 45 21 23 27 34 42 41 43 50 55 63 69

GFSSGP_850_rhum_285.txt.gz
RH
70 79 82 96 45 38 54 52 41 45 43 49 44 48 57 71 58 49 82 65 60 72 84 76 71 74 75 80 87 84 80 83 87 87 90 92 98 96 97 77 75 68 70 73 72 66 79 82 62
80 86 95 71 39 42 58 49 51 50 55 52 56 62 62 73 93 79 85 64 61 60 74 77 73 76 73 74 87 84 76 75 84 91 94 88 87 98 93 79 56 68 67 70 77 75 78 60 77
62 81 81 47 39 47 53 48 46 45 47 46 53 66 64 72 92 81 60 64 64 57 56 70 73 78 79 82 93 83 70 72 80 92 99 98 96 99 96 87 74 81 81 77 82 75 70 56 52
64 63 45 36 43 49 44 44 42 41 43 47 51 57 77 85 72 58 57 58 60 54 78 73 59 81 80 78 83 83 67 69 68 80 63 70 76 79 77 83 84 85 87 80 77 81 52 56 54
44 41 38 39 46 44 39 41 39 44 49 48 44 52 75 91 60 52 57 60 56 54 85 68 65 80 82 80 79 82 72 69 68 63 57 61 56 53 54 54 65 64 70 78 76 56 58 61 63
38 38 37 44 48 42 41 44 45 45 49 45 48 54 84 87 57 49 56 56 53 57 82 82 70 76 79 78 74 76 75 76 78 74 77 74 74 81 80 58 58 71 71 69 69 76 70 70 69
34 37 43 43 50 47 44 44 44 43 40 47 57 53 87 94 51 44 52 55 57 56 65 81 81 83 73 76 66 64 68 70 76 76 76 72 74 75 79 74 68 67 60 63 64 64 68 69 68
36 32 40 40 43 44 41 43 44 41 50 55 53 51 56 69 47 44 48 43 50 54 54 61 74 78 86 90 69 63 67 75 76 72 69 67 69 70 78 76 79 77 59 61 62 64 67 70 72
35 36 41 37 35 41 42 42 45 48 49 53 58 56 52 43 43 45 51 49 47 46 51 54 51 53 63 56 71 62 62 68 71 73 73 75 72 63 63 63 51 47 51 65 68 70 69 72 71
34 36 35 32 32 37 39 39 44 44 46 61 66 55 48 51 49 58 66 67 50 53 49 50 54 52 51 60 70 63 63 67 62 60 62 65 60 55 52 47 46 71 45 50 64 67 63 59 59
36 36 32 34 33 36 40 42 43 40 43 51 56 65 62 58 67 56 57 60 63 53 47 47 51 52 49 47 45 58 57 53 64 68 58 56 56 55 60 60 60 55 50 60 54 57 54 46 46
34 34 34 35 38 38 40 41 40 39 38 46 54 54 62 61 61 59 56 52 56 55 52 53 45 49 50 46 42 41 49 45 44 45 55 50 53 59 60 53 51 51 51 53 52 55 59 53 57
31 32 36 36 36 37 41 41 39 43 46 53 61 55 60 68 68 61 55 57 60 63 62 64 50 42 46 51 46 44 42 46 60 64 55 65 72 69 68 60 49 67 66 45 61 51 42 49 54
35 34 36 38 37 38 37 42 39 47 52 58 62 61 62 61 63 58 54 57 60 64 65 66 66 59 53 57 53 57 56 65 66 79 82 77 78 73 72 73 74 75 80 82 76 71 59 48 60
34 33 33 37 39 38 37 44 38 47 52 55 58 60 61 58 59 51 51 50 53 59 65 63 68 70 68 74 72 74 75 72 72 76 84 81 79 77 78 76 77 78 78 77 75 74 72 71 70
30 32 36 34 36 39 35 43 43 48 51 53 56 58 60 64 50 51 51 51 51 56 60 63 66 69 75 76 81 80 81 78 79 73 70 73 76 75 74 74 74 77 78 76 75 77 76 74 73
31 31 36 32 35 36 35 43 41 46 47 50 53 58 58 59 51 49 49 49 50 51 55 61 57 64 73 76 76 80 81 82 83 83 79 74 75 78 74 75 78 79 79 80 77 75 74 80 77
27 32 36 36 39 35 40 38 39 45 43 45 49 50 55 54 45 42 46 48 49 49 52 58 57 62 70 77 80 78 80 76 76 80 77 77 79 80 76 80 79 80 78 78 78 78 80 77 77
28 30 31 31 35 35 36 40 41 41 43 42 47 46 48 49 50 51 46 48 49 49 49 51 58 62 66 70 74 75 71 70 70 69 70 72 79 79 81 81 80 81 78 77 78 72 75 74 73
29 30 28 31 36 33 44 38 41 43 41 39 40 43 45 46 46 42 41 45 42 45 48 50 57 60 67 70 71 70 68 71 70 72 76 78 79 79 77 69 73 75 81 79 80 81 81 78 78
26 24 30 33 32 38 33 44 47 42 43 42 42 38 37 38 44 42 37 38 38 38 42 48 52 50 60 70 72 62 58 60 64 68 73 76 79 76 75 74 76 80 80 79 82 81 78 78 76
21 26 30 31 29 32 36 28 40 43 43 40 38 40 39 36 38 32 33 34 35 33 38 46 48 50 56 68 73 67 68 69 69 66 66 66 67 70 64 70 77 76 74 76 76 73 71 68 76
20 25 28 32 32 32 33 34 29 43 46 41 38 38 38 39 37 37 31 32 33 33 34 41 45 51 59 61 69 73 67 69 69 69 65 62 66 71 74 72 74 77 80 76 74 72 73 75 80
25 22 25 29 29 26 30 34 25 27 28 29 31 34 35 36 38 39 34 35 34 35 36 38 41 47 52 60 63 71 72 70 71 74 72 70 73 78 75 79 84 85 74 50 52 77 81 85 85
22 21 26 26 23 23 34 33 23 21 24 25 24 28 30 34 37 42 35 31 35 35 37 38 40 44 48 57 61 68 70 71 75 75 73 73 77 82 82 88 91 85 61 50 50 84 84 85 90
24 21 25 30 26 25 34 24 21 22 23 26 28 28 31 30 34 38 32 34 36 35 38 42 43 43 48 54 60 64 69 73 76 76 75 75 77 78 83 87 75 53 33 22 30 60 86 83 80
24 26 20 27 36 29 25 24 21 22 24 24 26 29 27 29 30 28 29 34 38 36 37 40 44 45 47 47 58 63 69 71 76 75 77 78 74 75 84 73 55 46 32 18 18 22 51 65 71
19 20 23 25 27 20 18 25 17 20 22 24 25 26 30 32 27 28 32 33 35 37 38 39 44 46 47 50 53 62 64 72 76 78 80 76 74 73 76 55 47 42 25 24 21 19 19 21 21
20 20 23 22 23 20 16 12 23 23 21 20 21 24 28 30 26 24 28 31 35 37 38 39 41 46 49 51 54 62 68 72 70 78 78 77 78 76 76 46 38 20 18 22 23 23 22 26 30
16 17 16 20 27 29 23 11 17 20 19 26 24 25 27 29 28 26 27 31 32 35 37 39 41 45 47 49 54 63 68 71 67 69 74 72 69 67 69 45 39 20 24 27 23 26 30 36 37

GFSSGP_850_rhum_291.txt.gz
RH
64 73 78 71 64 39 26 27 20 25 26 29 32 34 35 37 41 56 53 63 69 78 87 77 76 83 78 73 78 78 78 79 83 93 93 93 94 85 81 68 68 66 70 72 79 79 71 62 55
74 80 78 56 47 37 33 22 27 26 28 31 32 34 34 41 46 50 54 53 54 57 66 92 73 82 73 70 84 72 87 85 88 93 96 99 95 85 73 68 68 65 66 70 82 65 57 62 72
79 77 55 36 35 30 29 24 26 27 29 28 33 31 31 40 44 48 53 48 46 52 72 80 74 79 68 69 64 66 91 92 94 96 98 99 95 87 78 74 70 71 73 82 74 72 78 79 64
59 57 38 23 32 30 24 24 24 26 28 26 30 36 42 42 46 52 50 46 46 54 81 73 76 80 66 68 70 61 74 78 91 94 96 98 97 84 70 67 69 72 81 81 74 64 70 50 50
52 32 24 27 27 25 24 23 24 26 27 24 25 35 45 48 51 51 48 44 47 57 78 95 76 76 70 69 60 51 59 77 86 92 97 96 86 71 64 77 79 83 83 79 67 72 59 70 66
38 15 24 31 27 25 25 23 21 22 24 25 29 37 44 50 50 49 45 46 46 52 69 94 77 77 72 73 68 64 58 55 60 64 82 89 85 81 75 77 77 81 76 68 71 66 60 62 55
26 16 22 27 29 26 27 23 19 22 24 25 26 32 40 43 48 49 47 48 48 52 55 74 86 71 71 70 74 73 74 70 74 70 71 71 69 70 70 65 68 66 68 61 63 65 58 58 59
19 50 19 19 22 29 26 24 23 23 28 29 27 32 36 42 46 49 48 49 51 54 58 58 78 87 83 94 71 71 74 74 73 71 63 57 63 60 67 66 70 65 66 61 67 62 61 58 59
37 22 20 20 23 27 25 26 27 27 29 32 28 31 38 43 44 45 47 52 59 58 56 56 57 86 82 81 74 74 69 63 71 74 71 81 72 79 86 80 67 60 59 60 64 59 59 60 57
24 18 22 18 18 23 24 26 26 26 29 31 33 36 39 42 44 40 42 48 51 54 53 53 54 60 72 71 86 75 80 90 86 88 89 83 83 92 86 72 44 48 59 58 61 53 50 71 85
17 21 19 19 20 20 23 25 24 22 27 29 33 36 39 40 41 42 40 43 45 50 55 55 64 62 58 70 72 69 74 71 81 87 84 86 83 72 88 66 72 60 39 76 67 58 77 66 60
20 19 20 22 22 22 22 25 23 23 25 29 32 34 37 38 37 39 40 43 47 52 54 56 62 63 62 65 62 62 67 77 72 83 91 91 86 82 73 64 78 73 77 86 67 75 78 78 80
19 20 21 22 22 23 24 22 25 24 26 29 32 33 35 34 36 38 40 43 46 52 58 56 65 76 74 75 65 71 69 64 72 68 89 83 72 74 69 71 67 66 78 68 62 67 66 75 72
20 21 22 23 23 24 22 24 24 25 27 30 32 33 34 34 34 39 39 42 44 47 54 63 71 82 76 79 77 69 69 65 74 87 83 51 76 75 71 81 74 67 76 78 71 69 73 75 67
20 23 22 22 24 23 23 27 25 27 26 29 31 31 33 34 35 37 39 42 44 47 55 66 70 78 83 83 88 75 73 71 77 82 84 57 82 87 84 85 81 78 81 94 82 79 84 81 72
17 18 26 22 22 23 36 37 26 27 26 28 29 31 34 36 37 39 40 39 44 50 60 63 58 70 79 86 86 81 79 78 75 86 88 89 92 82 90 88 87 81 87 88 83 89 79 79 85
25 20 21 26 21 22 25 30 26 26 26 28 28 31 32 37 39 42 42 42 47 53 64 66 65 66 77 86 88 91 80 88 86 80 76 82 82 88 91 86 86 88 84 81 87 83 88 81 78
16 18 18 21 21 22 25 25 25 26 25 27 26 29 31 33 38 41 41 44 48 52 62 68 70 73 79 86 86 85 88 85 85 82 81 85 84 88 93 87 84 91 90 84 81 85 83 86 90
13 17 16 17 18 21 21 22 26 25 25 27 27 28 30 30 35 37 40 42 46 51 57 67 71 81 83 79 72 78 76 78 75 77 81 87 89 84 92 85 88 92 87 91 95 91 82 91 78
12 15 17 17 17 20 20 21 22 24 24 25 27 28 30 32 32 36 38 39 43 49 54 64 70 81 79 75 72 66 70 71 66 73 86 93 91 92 96 86 86 87 84 91 94 92 84 88 84
11 13 15 17 19 16 19 24 24 23 24 24 25 26 27 29 31 32 36 37 40 44 54 63 72 67 69 77 78 83 79 77 76 77 84 89 86 93 96 95 82 67 71 87 93 92 91 87 84
20 11 13 14 15 17 15 25 27 25 25 24 24 24 24 26 28 30 31 34 36 39 48 59 76 52 81 78 74 75 69 65 68 70 70 80 94 94 94 93 91 74 76 86 85 95 79 83 84
12 10 12 13 14 11 14 13 19 22 23 22 22 21 21 22 23 25 28 29 32 34 41 55 75 76 70 77 72 80 69 66 66 69 74 66 86 66 92 96 96 88 94 94 84 94 93 89 76
9 10 11 11 15 13 13 12 19 17 16 16 16 19 19 19 20 23 25 29 32 34 39 49 70 76 52 72 56 84 83 73 68 75 79 76 74 80 76 91 89 91 91 94 89 90 87 88 85
9 14 30 29 13 14 11 14 12 11 11 12 14 16 17 17 18 21 25 28 32 37 42 47 67 80 54 68 83 86 88 86 85 89 74 73 67 68 81 90 99 83 92 74 65 86 90 90 94
10 12 18 23 17 12 12 17 14 10 11 12 13 13 14 14 16 18 25 28 35 40 45 50 60 80 80 51 67 86 92 84 82 83 77 80 73 72 75 85 86 89 86 52 49 63 80 79 88
11 13 8 12 9 11 11 12 11 11 11 11 11 12 13 13 14 18 24 29 36 40 47 51 57 74 78 74 79 86 93 93 78 79 82 87 85 84 86 91 96 91 81 38 48 45 70 79 93
13 24 16 24 14 13 11 14 14 13 12 11 11 12 13 13 17 19 23 28 35 40 45 50 56 67 71 66 72 79 82 86 87 81 82 83 82 79 91 95 95 93 79 33 16 67 54 36 68
12 12 17 11 9 11 11 14 11 11 10 11 11 12 13 15 17 20 23 27 34 40 42 50 54 61 65 65 60 69 70 76 90 81 82 85 80 92 91 94 98 95 48 26 21 45 68 35 64
8 9 9 21 40 9 10 12 8 9 9 9 10 12 16 17 21 23 25 28 33 39 38 47 51 52 59 57 62 62 68 69 69 83 81 84 88 87 90 98 99 93 50 48 35 28 65 48 79